Bozeman, MT

10:40 AM MDT on June 23, 2017 (GMT -0600)
Gallatin

Weather History for KBZN - January, 2013

Change the Weather History Date:

Monday, January 14, 2013

  Actual Average Record
Temperature  
Mean Temperature -2 °F 24 °F  
Max Temperature 10 °F 36 °F 53 °F (1994)
Min Temperature -15 °F 11 °F -30 °F (1947)
Degree Days  
Heating Degree Days 67 42  
Month to date heating degree days 714 596  
Since 1 July heating degree days 3941 3831  
Cooling Degree Days 0 0  
Month to date cooling degree days 0 0  
Year to date cooling degree days 0 0  
Moisture  
Dew Point -4 °F    
Average Humidity 77    
Maximum Humidity 83    
Minimum Humidity 71    
Precipitation  
Precipitation T in 0.01 in 0.71 in (2003)
Month to date precipitation 0.14 0.22  
Year to date precipitation 0.14 0.22  
Snow  
Snow T in 0.20 in 6.40 in (1949)
Month to date snowfall 0.3 1.8  
Since 1 July snowfall 14.9 15.2  
Snow Depth 5.00 in    
Sea Level Pressure  
Sea Level Pressure 30.37 in    
Wind  
Wind Speed 2 mph (SSE)    
Max Wind Speed 7 mph    
Max Gust Speed 8 mph    
Visibility 7 miles    
Events Snow    
T = Trace of Precipitation, MM = Missing Value Source: NWS Daily Summary

Daily Weather History Graph

Daily Weather History Graph

Search for Another Location

Airport or City:

Trip Planner

Search our weather history database for the weather conditions in past years. The results will help you decide how hot, cold, wet, or windy it might be!

Date:

Astronomy

Jan. 14, 2013 Rise Set
Actual Time 8:02 AM MST 5:05 PM MST
Civil Twilight 7:28 AM MST 5:39 PM MST
Nautical Twilight 6:51 AM MST 6:16 PM MST
Astronomical Twilight 6:16 AM MST 6:51 PM MST
Moon 9:24 AM MST (1/14) 9:09 PM MST (1/14)
Length of Visible Light 10h 10m
Length of Day
9h 03m
Waxing Crescent, 12% of the Moon is Illuminated
Jan 14
Waxing Crescent
Jan 18
First Quarter
Jan 26
Full
Feb 3
Last Quarter
Feb 10
New

Hourly Weather History & Observations

Time (MST) Temp. Windchill Dew Point Humidity Pressure Visibility Wind Dir Wind Speed Gust Speed Precip Events Conditions
12:56 AM 1.0 °F -8.7 °F -4.0 °F 79% 30.44 in 4.0 mi South 4.6 mph - N/A   Haze
1:20 AM -2.2 °F -12.5 °F -5.8 °F 85% 30.16 in 5.0 mi SSE 4.6 mph - 0.00 in   Overcast
1:56 AM -2.0 °F -12.2 °F -7.1 °F 79% 30.46 in 7.0 mi South 4.6 mph - 0.00 in   Overcast
2:20 AM -2.2 °F -12.5 °F -7.6 °F 78% 30.18 in 7.0 mi South 4.6 mph - N/A   Scattered Clouds
2:56 AM -7.1 °F - -11.0 °F 83% 30.49 in 7.0 mi Calm Calm - N/A   Scattered Clouds
3:56 AM -8.0 °F -16.9 °F -13.0 °F 79% 30.50 in 8.0 mi SSW 3.5 mph - N/A   Clear
4:56 AM -9.9 °F -19.2 °F -14.1 °F 82% 30.50 in 10.0 mi SE 3.5 mph - N/A   Clear
5:56 AM -8.0 °F -16.9 °F -13.0 °F 79% 30.49 in 10.0 mi SSE 3.5 mph - N/A   Partly Cloudy
6:56 AM -11.0 °F -20.4 °F -17.0 °F 75% 30.51 in 10.0 mi SSW 3.5 mph - N/A   Clear
7:56 AM -8.0 °F -19.2 °F -14.1 °F 75% 30.49 in 10.0 mi South 4.6 mph - N/A   Clear
8:56 AM -9.0 °F -18.2 °F -14.1 °F 79% 30.49 in 10.0 mi South 3.5 mph - N/A   Clear
9:56 AM -4.0 °F -14.6 °F -9.0 °F 79% 30.47 in 8.0 mi West 4.6 mph - N/A   Clear
10:56 AM -0.0 °F - -4.0 °F 83% 30.46 in 7.0 mi Calm Calm - N/A   Clear
11:56 AM -0.0 °F -7.9 °F -5.1 °F 79% 30.42 in 8.0 mi SE 3.5 mph - N/A   Overcast
12:56 PM 3.0 °F -4.4 °F -4.0 °F 73% 30.38 in 2.5 mi East 3.5 mph - 0.00 in Snow Light Snow
1:31 PM 3.2 °F - -2.2 °F 78% 30.08 in 4.0 mi Calm Calm - 0.00 in   Haze
1:56 PM 5.0 °F - -2.0 °F 73% 30.37 in 7.0 mi Calm Calm - 0.00 in   Overcast
2:56 PM 6.1 °F - -0.9 °F 73% 30.41 in 2.0 mi Calm Calm - 0.00 in Snow Light Snow
3:03 PM 6.8 °F - -0.4 °F 72% 30.11 in 1.5 mi Calm Calm - 0.00 in Snow Light Snow
3:29 PM 6.8 °F -3.5 °F -0.4 °F 72% 30.11 in 2.5 mi SE 5.8 mph - 0.00 in Snow Light Snow
3:37 PM 6.8 °F -3.5 °F -0.4 °F 72% 30.10 in 5.0 mi SE 5.8 mph - 0.00 in Snow Light Snow
3:56 PM 6.1 °F -0.9 °F -0.0 °F 76% 30.40 in 10.0 mi SE 3.5 mph - 0.00 in   Overcast
4:56 PM 7.0 °F - -0.0 °F 73% 30.42 in 10.0 mi Calm Calm - 0.00 in   Overcast
5:56 PM 7.0 °F - 1.0 °F 77% 30.40 in 10.0 mi Calm Calm - N/A   Overcast
6:56 PM 7.0 °F 0.1 °F 1.0 °F 77% 30.43 in 5.0 mi ENE 3.5 mph - 0.00 in Snow Light Snow
7:56 PM 7.0 °F - 1.9 °F 80% 30.43 in 8.0 mi Calm Calm - 0.00 in Snow Light Snow
8:56 PM 8.1 °F - 3.0 °F 80% 30.44 in 5.0 mi Calm Calm - 0.00 in Snow Light Snow
9:56 PM 9.0 °F - 3.0 °F 77% 30.42 in 9.0 mi Calm Calm - 0.00 in Snow Light Snow
10:56 PM 9.0 °F - 3.0 °F 77% 30.42 in 8.0 mi Calm Calm - 0.00 in   Overcast
11:56 PM 10.4 °F - 5.0 °F 79% 30.17 in 9.0 mi Calm Calm - N/A Snow Light Snow